Simultaneous Nadir Overpasses (SNOs) Predictions

Prediction of SNOs between METOP-B and TERRA Satellite Orbit:

Table of predicted SNOs for the next 14.0 days since TLE Epoch: 7/13/2019
Index Date (METOP-B) Time (METOP-B) Lat,Lon (METOP-B) SZA (METOP-B ) Date (TERRA) Time (TERRA) Lat,Lon (TERRA) SZA (TERRA ) Distance(km) Time Diff (sec)
1 07/14/2019 17:59:42 -81.31, 137.22 117.59 07/14/2019 18:00:34 -81.31, 137.11 117.58 1.83 52
2 07/14/2019 18:50:22 81.31, -55.09 62.46 07/14/2019 18:50:00 81.31, -55.18 62.44 1.51 22
3 07/17/2019 13:34:04 -81.31,-156.22 117.13 07/17/2019 13:34:48 -81.32,-156.27 117.11 1.12 44
4 07/17/2019 14:24:44 81.31, 11.47 62.92 07/17/2019 14:24:14 81.32, 11.42 62.91 0.94 30
5 07/20/2019 09:08:27 -81.31, -90.05 116.67 07/20/2019 09:09:03 -81.31, -90.01 116.65 0.68 36
6 07/20/2019 09:59:07 81.31, 77.62 63.39 07/20/2019 09:58:29 81.31, 77.65 63.37 0.66 38
7 07/23/2019 04:42:48 -81.31, -23.51 116.11 07/23/2019 04:43:16 -81.32, -23.36 116.07 2.63 28
8 07/23/2019 05:33:28 81.31, 144.16 63.94 07/23/2019 05:32:42 81.32, 144.28 63.94 2.17 46
9 07/26/2019 00:17:10 -81.31, 43.03 115.51 07/26/2019 00:17:31 -81.31, 42.92 115.51 1.83 21




NCC Satellite Simultaneous Nadir Overpasses (SNOs) Prediction Service
